THY9179 LTFM-LTAI

Flight info

Callsign THY9179
Flight time 0h 51m
Altitude 35000
Route RATVU1E/36 RATVU UT35 BABSA
Aircraft A346/H-SDE2E3FGHIJ3J4J5M1RWXY/LB1D1

Departure

Time 2026-05-04 11:01
Airport İstanbul Airport (LTFM)

Arrival

Time 2026-05-04 11:53
Airport Antalya International Airport (LTAI)
Time Latitude Longitude Altitude Speed Heading
2026-05-04 10:42 41.25970 28.74962 322 ft 0 kts 251°
2026-05-04 10:52 41.25973 28.74973 319 ft 4 kts 247°
2026-05-04 10:52 41.25986 28.75002 320 ft 4 kts 235°
2026-05-04 10:52 41.25996 28.75027 319 ft 3 kts 251°
2026-05-04 10:54 41.25943 28.75107 318 ft 0 kts 341°
2026-05-04 10:54 41.25943 28.75106 322 ft 0 kts 341°
2026-05-04 10:56 41.25999 28.75081 321 ft 7 kts 339°
2026-05-04 10:56 41.26053 28.75051 319 ft 10 kts 337°
2026-05-04 10:56 41.26124 28.75011 320 ft 12 kts 338°
2026-05-04 10:57 41.26178 28.74986 322 ft 7 kts 348°
2026-05-04 10:57 41.26223 28.74996 322 ft 8 kts 43°
2026-05-04 10:57 41.26238 28.75071 322 ft 10 kts 87°
2026-05-04 10:57 41.26241 28.75181 322 ft 13 kts 89°
2026-05-04 10:58 41.26242 28.75308 322 ft 12 kts 89°
2026-05-04 10:58 41.26242 28.75381 322 ft 7 kts 90°
2026-05-04 10:58 41.26243 28.75457 322 ft 10 kts 89°
2026-05-04 10:58 41.26244 28.75560 322 ft 13 kts 89°
2026-05-04 10:59 41.26245 28.75638 324 ft 4 kts 88°
2026-05-04 10:59 41.26255 28.75654 320 ft 4 kts 28°
2026-05-04 10:59 41.26294 28.75667 320 ft 8 kts
2026-05-04 10:59 41.26377 28.75666 323 ft 28 kts 359°
2026-05-04 11:00 41.26807 28.75660 315 ft 93 kts 359°
2026-05-04 11:01 41.34188 28.79232 3544 ft 203 kts 27°
2026-05-04 11:02 41.35446 28.80246 3868 ft 221 kts 28°
2026-05-04 11:02 41.36815 28.81366 4208 ft 240 kts 32°
2026-05-04 11:05 41.15843 28.94001 12861 ft 425 kts 184°
2026-05-04 11:06 41.12873 28.93716 13609 ft 431 kts 184°
2026-05-04 11:06 41.09863 28.93430 14299 ft 437 kts 184°
2026-05-04 11:06 41.06816 28.93144 15035 ft 440 kts 183°
2026-05-04 11:06 41.03752 28.92859 15815 ft 442 kts 183°
2026-05-04 11:08 40.82248 28.91257 20617 ft 462 kts 174°
2026-05-04 11:10 40.59031 28.93198 24525 ft 490 kts 171°
2026-05-04 11:12 40.38377 29.07802 28070 ft 491 kts 142°
2026-05-04 11:12 40.35509 29.10252 28595 ft 492 kts 142°
2026-05-04 11:12 40.32634 29.12693 29317 ft 490 kts 142°
2026-05-04 11:12 40.29788 29.15098 30126 ft 485 kts 141°
2026-05-04 11:13 40.26998 29.17463 30802 ft 481 kts 142°
2026-05-04 11:13 40.24189 29.19848 31395 ft 479 kts 142°
2026-05-04 11:13 40.21339 29.22118 31949 ft 480 kts 146°
2026-05-04 11:13 40.18393 29.24184 32505 ft 481 kts 149°
2026-05-04 11:14 40.09077 29.29148 33923 ft 485 kts 158°
2026-05-04 11:16 39.86655 29.40048 35005 ft 492 kts 155°
2026-05-04 11:16 39.80354 29.43516 35005 ft 491 kts 155°
2026-05-04 11:17 39.74047 29.46977 34996 ft 491 kts 155°
2026-05-04 11:19 39.48551 29.60215 34996 ft 496 kts 158°
2026-05-04 11:19 39.42102 29.63415 34995 ft 497 kts 158°
2026-05-04 11:20 39.35617 29.66622 34994 ft 498 kts 158°
2026-05-04 11:20 39.30219 29.69246 34994 ft 498 kts 158°
2026-05-04 11:22 39.04193 29.81824 34983 ft 499 kts 159°
2026-05-04 11:23 38.97681 29.84960 34972 ft 501 kts 159°
2026-05-04 11:25 38.74696 29.95968 34669 ft 507 kts 159°
2026-05-04 11:25 38.71384 29.97545 34035 ft 508 kts 159°
2026-05-04 11:25 38.68062 29.99125 33322 ft 509 kts 158°
2026-05-04 11:26 38.61423 30.02279 32023 ft 507 kts 158°
2026-05-04 11:27 38.38316 30.13241 27359 ft 504 kts 157°
2026-05-04 11:28 38.35050 30.14782 26955 ft 498 kts 157°
2026-05-04 11:28 38.31816 30.16306 26522 ft 493 kts 158°
2026-05-04 11:28 38.28613 30.17815 26089 ft 489 kts 158°
2026-05-04 11:28 38.25436 30.19311 25792 ft 480 kts 158°
2026-05-04 11:29 38.22350 30.20759 25642 ft 465 kts 158°
2026-05-04 11:29 38.19369 30.22155 25555 ft 446 kts 158°
2026-05-04 11:29 38.16462 30.23373 25364 ft 440 kts 168°
2026-05-04 11:29 38.13369 30.23648 25171 ft 447 kts 181°
2026-05-04 11:31 37.91985 30.22571 25021 ft 440 kts 181°
2026-05-04 11:33 37.70547 30.22210 25276 ft 437 kts 172°
2026-05-04 11:33 37.67678 30.23335 24974 ft 428 kts 151°
2026-05-04 11:33 37.65132 30.25204 24721 ft 419 kts 146°
2026-05-04 11:34 37.62688 30.27169 24414 ft 414 kts 147°
2026-05-04 11:34 37.60246 30.29064 24087 ft 409 kts 148°
2026-05-04 11:34 37.57840 30.30846 23772 ft 404 kts 150°
2026-05-04 11:34 37.55412 30.32585 23489 ft 399 kts 150°
2026-05-04 11:35 37.52998 30.34279 23153 ft 394 kts 151°
2026-05-04 11:35 37.50611 30.35931 22800 ft 389 kts 151°
2026-05-04 11:35 37.48250 30.37556 22442 ft 384 kts 152°
2026-05-04 11:35 37.45913 30.39161 22054 ft 382 kts 152°
2026-05-04 11:36 37.43583 30.40761 21654 ft 380 kts 152°
2026-05-04 11:36 37.41267 30.42346 21240 ft 378 kts 152°
2026-05-04 11:36 37.38960 30.43921 20817 ft 376 kts 153°
2026-05-04 11:36 37.36661 30.45493 20398 ft 375 kts 153°
2026-05-04 11:37 37.34368 30.47055 19997 ft 374 kts 153°
2026-05-04 11:37 37.32080 30.48612 19656 ft 372 kts 153°
2026-05-04 11:37 37.29817 30.50154 19284 ft 370 kts 153°
2026-05-04 11:37 37.27555 30.51694 18877 ft 369 kts 153°
2026-05-04 11:38 37.25304 30.53225 18509 ft 367 kts 153°
2026-05-04 11:38 37.23066 30.54747 18146 ft 365 kts 153°
2026-05-04 11:38 37.20833 30.56264 17653 ft 366 kts 153°
2026-05-04 11:38 37.18587 30.57790 17052 ft 367 kts 153°
2026-05-04 11:39 37.16353 30.59306 16439 ft 360 kts 152°
2026-05-04 11:39 37.14181 30.60778 15891 ft 350 kts 152°
2026-05-04 11:40 37.01868 30.68370 12697 ft 312 kts 178°
2026-05-04 11:41 36.99718 30.68354 12162 ft 307 kts 187°
2026-05-04 11:41 36.97593 30.68134 11611 ft 306 kts 188°
2026-05-04 11:41 36.95483 30.67907 11080 ft 303 kts 187°
2026-05-04 11:41 36.93384 30.67699 10549 ft 301 kts 186°
2026-05-04 11:42 36.91303 30.67513 10026 ft 300 kts 186°
2026-05-04 11:42 36.89231 30.67349 9449 ft 296 kts 187°
2026-05-04 11:42 36.87197 30.67180 8893 ft 290 kts 187°
2026-05-04 11:42 36.85193 30.67008 8342 ft 287 kts 186°
2026-05-04 11:43 36.83209 30.66844 7788 ft 284 kts 187°
2026-05-04 11:43 36.81254 30.66688 7240 ft 279 kts 188°
2026-05-04 11:43 36.79319 30.66525 6733 ft 279 kts 187°
2026-05-04 11:43 36.77395 30.66357 6207 ft 280 kts 187°
2026-05-04 11:44 36.75455 30.66196 5663 ft 280 kts 187°
2026-05-04 11:44 36.73538 30.66036 5158 ft 278 kts 187°
2026-05-04 11:44 36.71666 30.65884 4965 ft 263 kts 187°
2026-05-04 11:44 36.69866 30.65738 5001 ft 253 kts 186°
2026-05-04 11:45 36.68159 30.65591 4965 ft 240 kts 186°
2026-05-04 11:45 36.66491 30.65457 4970 ft 241 kts 186°
2026-05-04 11:45 36.64811 30.65480 4934 ft 244 kts 164°
2026-05-04 11:45 36.63397 30.66554 4793 ft 240 kts 125°
2026-05-04 11:46 36.62698 30.68404 4696 ft 236 kts 103°
2026-05-04 11:46 36.62298 30.70386 4573 ft 234 kts 91°
2026-05-04 11:46 36.62544 30.72311 4388 ft 223 kts 57°
2026-05-04 11:46 36.63554 30.73691 4240 ft 214 kts 25°
2026-05-04 11:47 36.64893 30.74265 4133 ft 210 kts 10°
2026-05-04 11:47 36.66305 30.74643 3954 ft 211 kts 10°
2026-05-04 11:47 36.67735 30.75034 3731 ft 210 kts 11°
2026-05-04 11:47 36.69104 30.75659 3497 ft 208 kts 18°
2026-05-04 11:48 36.70409 30.76290 3291 ft 193 kts 12°
2026-05-04 11:48 36.71671 30.76667 3071 ft 181 kts
2026-05-04 11:48 36.72882 30.76897 2899 ft 170 kts
2026-05-04 11:48 36.74023 30.77069 2897 ft 159 kts
2026-05-04 11:49 36.75091 30.77219 2823 ft 152 kts
2026-05-04 11:49 36.76140 30.77360 2673 ft 151 kts
2026-05-04 11:49 36.77182 30.77502 2472 ft 150 kts
2026-05-04 11:49 36.78222 30.77644 2268 ft 150 kts
2026-05-04 11:50 36.79256 30.77787 2065 ft 149 kts
2026-05-04 11:50 36.80288 30.77928 1862 ft 149 kts
2026-05-04 11:50 36.81317 30.78070 1687 ft 149 kts
2026-05-04 11:50 36.82343 30.78211 1481 ft 148 kts
2026-05-04 11:51 36.83365 30.78353 1255 ft 147 kts
2026-05-04 11:51 36.84385 30.78496 1062 ft 147 kts
2026-05-04 11:51 36.85399 30.78629 867 ft 146 kts
2026-05-04 11:51 36.86409 30.78758 667 ft 146 kts 360°
2026-05-04 11:52 36.87413 30.78916 461 ft 144 kts 358°
2026-05-04 11:52 36.88395 30.79043 220 ft 141 kts 359°
2026-05-04 11:52 36.89291 30.79159 183 ft 107 kts
2026-05-04 11:52 36.89852 30.79241 184 ft 55 kts
2026-05-04 11:53 36.90121 30.79278 185 ft 34 kts
2026-05-04 11:53 36.90294 30.79314 183 ft 21 kts 25°
2026-05-04 11:53 36.90413 30.79419 179 ft 20 kts 37°
2026-05-04 11:53 36.90508 30.79510 184 ft 17 kts 37°
2026-05-04 11:55 36.90944 30.79904 181 ft 7 kts 18°
2026-05-04 11:55 36.90980 30.79947 184 ft 9 kts 72°
2026-05-04 11:56 36.90983 30.80001 184 ft 0 kts 95°